Theta_e
345 341 341 339 338 339 339 339 339 339 340 342 341 336 333 332 332 334 336 339 340 339 336 332 333 338 341 339 336 339 342 341 340 338 337 337 337 337 339 341 340 340 339
347 341 341 339 338 339 338 337 337 338 340 341 342 338 334 333 332 332 334 336 334 334 336 337 335 336 337 336 335 335 338 339 338 337 337 337 337 338 341 341 338 339 339
347 343 342 340 339 339 338 338 337 338 341 341 342 338 335 334 332 332 333 333 333 339 340 338 338 337 337 336 335 336 338 339 338 337 337 336 337 341 341 339 337 338 338
350 345 343 341 340 340 338 338 339 340 342 342 342 339 336 334 333 332 334 333 340 343 342 340 339 338 337 337 338 339 339 338 338 338 337 336 338 337 337 337 337 337 337
350 349 345 342 341 340 338 338 339 340 342 342 342 340 337 336 334 333 336 336 338 341 340 338 339 339 338 337 338 339 339 338 338 338 333 335 335 337 339 336 336 336 337
351 350 349 344 343 340 338 338 339 341 342 341 342 341 338 337 335 334 336 336 339 339 339 339 339 339 339 337 339 338 338 338 338 337 334 332 335 336 336 336 336 336 337
348 349 348 347 342 342 338 338 338 338 338 340 342 342 340 338 336 336 337 338 338 338 339 339 338 338 338 337 338 338 338 337 338 336 329 328 335 336 335 335 335 336 336
341 350 348 348 344 339 338 337 337 336 336 336 339 341 341 340 338 337 337 339 338 338 338 338 338 338 337 337 337 337 337 337 339 336 331 332 335 335 334 335 335 334 335
337 343 352 351 349 343 338 337 337 336 336 336 337 340 341 341 339 338 338 339 339 338 338 338 337 338 337 337 336 336 337 337 338 336 336 335 337 335 334 335 335 333 333
318 324 343 349 348 345 339 337 337 337 336 337 337 339 341 341 340 339 339 339 339 339 338 338 337 337 337 336 336 335 335 336 337 337 337 337 337 335 334 334 333 331 331
311 311 335 346 348 347 340 338 338 337 337 337 339 340 341 341 340 340 339 340 340 339 338 338 337 336 336 335 335 334 335 334 336 337 335 336 336 334 334 334 332 331 331
311 311 313 341 348 349 345 342 339 338 337 338 339 341 341 341 340 340 339 340 339 339 339 338 337 336 336 334 333 334 333 336 338 337 334 334 336 334 333 333 332 330 330
310 310 310 310 326 347 346 347 346 343 338 337 339 342 341 341 341 341 340 341 341 339 339 338 337 335 335 333 333 332 331 336 336 335 334 334 334 333 333 332 331 330 329
310 310 310 310 310 326 345 343 344 346 343 338 337 340 342 342 344 342 342 341 341 339 338 337 336 334 332 337 338 334 334 336 336 335 333 333 332 332 332 331 331 328 328
310 310 310 309 309 310 317 341 342 341 345 343 340 339 342 341 342 344 342 342 340 339 337 337 336 333 332 337 338 337 336 334 336 334 333 332 332 331 327 327 327 330 330
308 309 311 312 311 310 310 322 339 342 343 345 343 341 341 341 340 342 341 341 340 339 337 337 336 333 335 337 337 336 335 334 334 335 333 332 331 331 331 326 328 330 330
305 305 308 310 312 311 310 314 326 340 339 343 343 343 341 342 340 344 341 341 340 340 338 339 337 336 336 337 336 336 335 334 334 334 332 333 331 331 329 329 327 329 330
302 302 304 305 308 311 313 312 309 322 336 337 341 342 342 341 341 344 341 340 340 340 339 339 337 338 337 336 336 335 335 334 333 333 333 330 331 330 328 327 327 328 328
299 299 300 302 304 306 310 314 315 311 333 334 337 341 343 342 341 344 341 340 341 340 338 338 338 337 336 335 336 336 335 334 333 334 333 330 330 331 329 328 328 329 328
298 297 298 299 300 303 305 308 314 319 318 334 335 338 342 343 341 343 342 340 341 341 338 338 337 336 335 335 335 335 334 334 334 334 333 333 331 331 331 330 328 328 328
297 296 296 296 298 299 301 304 307 312 317 334 331 335 340 342 341 341 343 342 341 341 339 337 337 336 336 336 335 334 334 334 334 333 333 333 332 331 331 330 331 330 328
294 294 294 295 296 297 299 301 303 307 314 316 324 334 335 339 339 342 342 342 342 340 339 338 336 336 336 336 335 332 329 331 333 333 332 332 331 331 331 330 330 330 330
292 292 293 293 294 295 297 299 302 305 310 317 317 324 334 337 338 341 342 341 342 340 339 338 337 337 337 337 336 333 329 329 329 333 333 333 332 331 331 331 330 329 329
291 291 291 291 292 293 295 298 301 305 310 312 316 318 323 334 338 339 340 339 340 341 340 338 338 338 337 337 336 334 331 330 326 330 332 332 332 332 332 331 331 330 330
290 290 290 290 291 293 295 298 302 305 308 310 311 315 316 327 337 339 339 338 337 337 337 338 336 333 335 335 336 335 334 332 334 330 327 329 332 331 331 330 330 329 330
290 290 289 290 291 292 295 298 301 303 306 309 312 315 316 319 332 339 339 337 336 336 335 335 334 332 333 334 334 335 335 334 331 329 327 325 329 330 329 329 329 329 329
Wind_Speed
7 16 17 18 17 15 13 12 12 12 13 13 13 11 11 10 11 12 12 14 15 15 14 14 14 14 10 6 4 5 8 7 7 10 11 15 17 18 18 16 19 21 21
1 15 18 15 17 15 13 11 11 11 11 12 13 13 13 11 11 12 12 13 14 13 13 13 12 10 8 5 3 4 7 7 9 13 16 17 18 20 19 15 18 20 20
1 16 17 15 14 13 11 10 10 10 10 11 13 13 14 12 12 13 13 13 12 10 9 9 8 8 6 3 4 6 7 7 9 13 16 18 20 19 18 17 18 20 20
4 13 17 16 14 13 11 10 10 10 10 11 12 13 14 13 13 13 13 13 10 9 8 7 7 6 5 5 7 6 7 7 8 13 12 14 11 13 16 17 19 19 20
4 11 9 16 15 14 12 10 10 10 11 11 12 13 14 14 13 14 14 13 11 9 7 7 5 6 5 6 6 5 6 7 8 8 15 7 4 10 15 18 18 17 19
12 6 5 5 11 12 13 11 10 10 11 11 12 13 14 14 14 15 14 14 11 9 8 8 7 7 6 6 6 5 6 8 9 5 4 3 5 6 12 16 17 17 17
15 2 4 2 7 12 13 13 12 12 12 13 14 14 15 15 15 16 15 15 12 9 9 8 7 7 7 7 6 5 7 8 10 5 6 13 9 10 14 16 17 18 17
16 8 1 0 5 11 15 15 14 13 13 14 15 15 16 16 17 17 17 16 13 12 11 9 8 7 8 8 7 6 8 9 10 2 14 14 10 15 15 18 17 18 18
10 11 3 7 6 12 16 17 16 15 14 15 15 16 17 18 18 18 18 17 15 13 13 11 9 9 9 8 8 8 9 9 8 6 10 9 14 15 15 18 17 18 18
16 9 9 9 8 8 17 18 17 16 15 15 16 16 17 18 18 19 19 18 16 15 14 13 11 10 10 8 8 9 9 9 8 2 7 8 14 16 15 16 18 17 17
22 21 9 12 11 7 15 18 18 17 16 16 16 17 17 18 19 19 19 18 17 15 15 14 13 12 11 10 10 9 9 9 8 5 5 9 13 16 17 19 18 18 17
21 22 17 13 13 12 11 16 18 19 19 18 18 20 20 20 21 21 20 19 17 16 16 15 14 13 12 11 11 10 9 9 7 6 5 12 14 16 19 19 17 16 17
21 21 23 20 18 17 17 16 19 20 23 21 21 21 22 23 21 22 21 21 19 19 18 17 16 16 14 12 11 10 10 9 7 6 7 15 17 18 20 21 22 20 14
25 24 27 28 25 21 20 22 21 25 24 26 26 25 25 26 24 24 24 25 24 23 21 20 19 17 16 15 12 12 11 9 6 8 7 14 16 16 17 17 23 15 22
34 33 34 33 35 29 24 27 27 23 26 27 27 28 29 30 30 28 29 29 27 24 23 21 20 19 18 18 15 14 13 10 7 10 9 14 15 17 16 9 19 24 21
36 39 38 42 37 31 23 27 31 31 26 28 29 30 33 32 32 31 31 30 27 26 26 23 21 21 21 17 19 16 13 10 10 11 8 12 16 17 17 17 19 22 22
33 35 37 40 36 39 30 21 31 35 32 33 32 34 35 35 33 30 32 30 28 27 25 25 23 20 20 20 19 17 14 12 11 11 10 9 16 17 15 16 18 20 21
32 36 38 39 40 37 35 32 27 31 32 35 34 31 38 39 35 32 32 33 29 30 27 27 26 24 24 22 21 20 19 18 17 17 16 10 13 19 18 19 19 20 21
34 35 38 39 38 41 38 32 27 23 36 37 36 39 32 42 39 33 35 33 31 33 31 28 29 27 24 22 19 19 22 21 20 19 17 13 13 16 21 22 22 21 20
38 35 32 35 37 38 39 35 27 26 27 36 36 38 39 40 40 35 37 34 33 32 35 33 31 28 26 24 21 19 19 21 20 22 21 19 17 18 19 22 25 26 25
34 36 36 35 36 34 33 33 31 27 26 30 38 37 41 42 39 42 38 33 36 39 38 36 34 30 26 23 20 14 14 16 21 23 25 24 23 22 21 21 24 27 28
33 35 35 33 34 35 30 30 28 30 26 28 27 36 41 42 46 45 41 39 36 40 40 38 36 27 28 27 17 8 2 5 16 22 25 26 26 25 24 24 24 25 27
34 36 36 35 34 35 33 31 30 31 27 21 27 29 38 43 46 50 43 43 34 40 40 40 37 32 23 29 25 11 3 4 4 17 27 27 26 27 25 27 26 26 25
33 34 35 36 33 32 32 28 26 26 24 23 24 30 29 40 45 45 44 43 43 39 37 40 38 32 27 23 29 30 11 7 4 1 6 28 30 27 27 26 26 27 25
33 34 35 34 31 30 31 28 27 26 24 27 27 28 36 32 44 48 49 46 42 37 32 35 34 33 33 26 26 25 26 14 8 3 2 5 21 26 29 30 30 28 28
34 34 35 35 34 32 28 28 28 29 28 28 26 27 27 24 35 47 49 46 45 39 38 35 36 35 35 29 31 27 24 17 12 5 2 3 10 22 29 31 32 32 31
Wind_Direction
137 163 170 165 157 153 150 149 151 156 160 160 158 160 154 144 137 132 132 135 138 140 143 143 149 154 162 159 148 152 135 136 137 142 142 144 142 136 127 126 129 128 129
102 176 175 173 161 158 155 158 161 163 169 166 164 165 161 154 148 143 139 141 141 142 143 144 150 161 163 168 168 153 138 144 138 145 152 149 145 135 133 138 136 133 131
31 187 176 174 167 160 162 165 167 168 176 175 170 169 166 162 157 151 147 149 149 142 146 155 164 166 174 162 142 131 125 126 142 149 148 149 147 146 140 143 140 138 129
130 176 185 182 175 167 170 173 176 175 181 183 177 174 172 168 166 160 158 159 156 149 160 164 171 178 174 152 147 130 122 132 139 133 135 139 156 156 156 150 142 138 132
63 140 178 193 180 174 177 182 184 184 184 185 183 179 178 176 173 169 166 167 164 167 171 168 166 181 172 169 165 143 128 146 152 156 128 117 167 165 150 147 141 137 134
114 141 95 161 195 183 183 189 190 191 191 190 190 187 185 184 180 177 174 171 173 174 174 179 174 181 175 173 174 160 140 150 140 165 94 177 128 197 155 146 141 137 128
30 104 123 113 202 206 197 199 197 198 198 198 199 194 192 191 188 185 181 178 176 181 183 188 186 181 178 175 176 163 145 150 145 194 182 185 178 182 165 153 145 146 140
19 13 252 66 230 217 210 207 207 207 205 204 205 201 198 196 194 191 185 184 182 183 189 193 195 183 179 174 170 169 154 151 146 173 153 163 172 186 168 156 155 149 148
23 7 321 320 300 236 216 213 214 214 212 211 208 204 200 199 196 195 189 188 188 190 191 195 198 187 184 180 174 165 163 167 132 122 148 167 174 177 167 162 159 161 158
353 358 301 291 285 273 222 216 219 220 217 217 212 207 203 199 198 196 192 192 192 194 194 194 197 190 188 185 182 176 171 175 150 131 163 161 169 162 173 169 166 168 166
335 339 286 272 277 252 228 222 222 222 222 220 216 208 203 200 196 197 195 197 196 199 196 195 197 194 189 190 191 184 178 166 160 155 171 176 169 168 174 173 174 173 171
325 326 3 292 257 251 232 232 230 227 223 221 217 210 203 203 199 198 198 201 201 202 200 200 201 197 193 194 192 189 176 154 187 203 174 176 172 172 176 176 174 173 178
338 339 338 347 323 249 237 230 233 223 226 223 221 217 206 199 199 203 202 202 200 201 200 200 200 200 193 188 195 188 173 160 200 210 184 179 175 177 180 180 179 176 183
330 332 329 325 328 314 251 236 238 226 222 224 221 219 212 201 201 202 201 201 201 201 203 205 205 201 195 190 198 170 164 176 206 187 186 186 186 189 185 192 185 198 184
352 339 327 315 311 309 298 265 245 238 229 227 221 216 219 209 204 206 205 203 202 204 205 207 208 201 195 191 206 191 182 193 188 192 187 198 191 191 187 193 178 181 187
355 348 347 353 321 299 296 282 263 247 234 228 220 220 217 217 209 209 205 201 203 209 207 206 203 201 195 203 193 199 191 204 194 188 186 198 199 200 201 192 192 189 191
351 345 344 339 333 344 292 281 275 256 253 232 226 218 217 216 213 211 203 199 203 205 202 203 203 200 197 198 201 196 197 198 205 211 212 201 205 199 204 209 200 197 201
352 345 339 335 333 330 340 294 271 271 256 240 231 220 219 214 211 211 207 207 206 200 199 200 199 199 205 205 204 205 204 206 208 209 209 218 207 208 206 205 205 206 210
344 341 337 333 330 328 322 334 300 276 249 251 237 229 221 213 209 209 205 209 204 202 203 201 202 204 209 207 213 215 214 208 209 203 211 221 217 212 218 215 214 218 222
336 336 335 331 328 325 322 323 333 319 277 251 242 234 217 209 211 209 211 207 205 203 202 203 204 204 211 212 215 210 217 214 215 206 207 214 223 220 217 219 223 225 225
332 332 331 329 325 326 324 324 326 322 322 273 250 235 224 212 210 211 209 202 206 203 201 201 203 204 204 211 215 218 214 213 209 210 211 214 218 217 221 223 225 230 229
328 324 323 323 322 319 315 310 305 302 303 292 286 242 235 217 215 213 208 207 209 205 206 203 201 197 205 203 186 157 175 236 209 210 210 212 220 224 219 222 227 230 229
328 325 320 319 314 311 309 307 304 300 295 300 275 290 239 227 215 212 209 205 205 202 202 202 203 197 190 198 193 168 152 212 182 215 216 217 220 221 226 228 232 232 234
327 322 320 316 313 309 307 303 297 289 287 287 288 282 283 238 220 208 208 204 204 197 195 199 199 198 196 193 196 203 191 154 177 242 239 227 225 222 225 227 228 232 235
330 326 323 318 315 312 307 302 291 283 276 283 282 279 274 272 230 207 207 206 204 205 201 199 201 210 211 202 201 206 212 223 219 149 226 234 226 228 230 231 229 232 232
333 331 329 325 319 317 308 303 292 281 273 273 274 272 273 275 269 214 203 202 201 200 206 203 205 208 209 212 215 211 212 213 219 178 181 208 212 224 223 227 233 232 233